Tracking 18785 objects as of 23-July-2017
HD Live streaming from Space Station
objects crossing your sky now
MAYAK may become the brightest orbital object in the night sky!
Where is MAYAK now?
How to spot MAYAK

COSMOS 886

Track COSMOS 886 now!
10-day predictions
COSMOS 886 is classified as:


NORAD ID: 9634
Int'l Code: 1976-126A
Perigee: 600.1 km
Apogee: 2,292.1 km
Inclination: 65.8 °
Period: 114.6 minutes
Semi major axis: 7817 km
RCS: 4.7964 m2 (large)
Launch date: December 27, 1976
Source: Commonwealth of Independent States (former USSR) (CIS)
Launch site: TYURATAM MISSILE AND SPACE COMPLEX (TTMTR)
Your satellite tracking list
Your tracking list is empty





NASA's NSSDC Master Catalog

Two Line Element Set (TLE):
1  9634U 76126A   17203.69123580 -.00000045 +00000-0 +13075-4 0  9991
2  9634 065.8333 255.5326 1082258 144.6811 223.1048 12.56126339871768
Source of the keplerian elements: AFSPC